Flag for U.S.A. Weather past 2 weeks in Raleigh, North Carolina, U.S.A.

Now
53 °F

Light rain. Fog.


Feels Like: 52 °F
Forecast: 47 / 60 °F
Wind: 5 mph from Northeast

Location: Raleigh-Durham International Airport

Current Time: Apr 25, 2015 at 6:48:28 PM

Latest Report: Apr 25, 2015 at 5:51 PM


Visibility: 1 mi

Pressure: 29.71 "Hg

Humidity: 96%

Dew point: 52 °F

Location of RaleighLocation

Historic Weather in Raleigh — Graph

°F

Raleigh temperature yesterday

Maximum temperature yesterday: 67 °F (at 3:51 PM)
Minimum temperature yesterday: 39 °F (at 5:51 AM)
Average temperature yesterday: 55 °F

Past Weeks' High & Low Weather Summary

 TemperatureHumidityPressure
High81 °F (Apr 10, 5:51 PM)100% (Apr 25, 5:01 PM)30.36 "Hg (Apr 25, 5:01 PM)
Low39 °F (Apr 24, 5:51 AM)21% (Apr 23, 5:51 PM)29.64 "Hg (Apr 20, 5:51 PM)
Average63 °F67%30.02 "Hg
* Reported Apr 10 5:51 PM — Apr 25 5:01 PM, Raleigh, Weather by CustomWeather, © 2015

Note: Actual official high and low records may vary slightly from our data, if they occured in-between our weather recording intervals... More about our weather records

Advertising

Raleigh weather history for previous 24 hours

 ConditionsComfort  
Time TempWeatherWind HumidityBarometerVisibility
5:01 PM
Sat, Apr 25
54 °FLight rain. Fog.5 mph100%29.72 "Hg0 mi
3:51 PM56 °FLight rain. Fog.No wind97%29.74 "Hg1 mi
2:51 PM56 °FLight rain. Fog.3 mph97%29.79 "Hg1 mi
1:51 PM56 °FLight rain. Fog.7 mph93%29.82 "Hg1 mi
12:51 PM56 °FLight rain. Fog.8 mph93%29.83 "Hg4 mi
11:51 AM56 °FLight rain. Mostly cloudy.9 mph81%29.89 "Hg7 mi
10:51 AM57 °FMostly cloudy.3 mph64%29.91 "Hg10 mi
9:51 AM55 °FOvercast.No wind69%29.92 "Hg10 mi
8:51 AM53 °FOvercast.No wind72%29.93 "Hg10 mi
7:51 AM52 °FOvercast.3 mph69%29.92 "Hg10 mi
6:51 AM50 °FPassing clouds.No wind77%29.92 "Hg10 mi
5:51 AM49 °FPassing clouds.No wind80%29.91 "Hg10 mi
4:51 AM45 °FPassing clouds.3 mph82%29.90 "Hg10 mi
3:51 AM48 °FPassing clouds.No wind77%29.92 "Hg10 mi
2:51 AM47 °FPassing clouds.No wind74%29.93 "Hg10 mi
1:51 AM48 °FPassing clouds.No wind71%29.93 "Hg10 mi
12:51 AM49 °FPassing clouds.No wind69%29.95 "Hg10 mi
11:51 PM
Fri, Apr 24
50 °FPassing clouds.No wind63%29.95 "Hg10 mi
10:51 PM52 °FPassing clouds.No wind55%29.97 "Hg10 mi
9:51 PM52 °FPassing clouds.No wind55%29.98 "Hg10 mi
8:51 PM58 °FScattered clouds.No wind39%29.97 "Hg10 mi
7:51 PM58 °FPartly sunny.6 mph39%29.96 "Hg10 mi
6:51 PM63 °FPartly sunny.8 mph30%29.95 "Hg10 mi
Weather by CustomWeather, © 2015

See weather overviewHow to use our weather pages